{"data":{"norad_id":67850,"epoch":"2026-09-19T19:16:52.267872Z","epoch_age_seconds":126660,"freshness":"FRESH","line1":"1 67850U 26034A   26262.80338273  .00024283  00000+0  72710-3 0  9991","line2":"2 67850  53.1598  20.6207 0001194  78.1426 281.9710 15.34416763 33788","mean_motion":15.34416763,"eccentricity":0.0001194,"inclination_deg":53.1598,"raan_deg":20.6207,"arg_perigee_deg":78.1426,"mean_anomaly_deg":281.971,"bstar":0.0007271,"rev_number":3378,"period_min":93.84673282535,"perigee_km":461.8366271162,"apogee_km":463.4702078679,"semimajor_km":6840.790417492,"source":"CELESTRAK","updated_at":"2026-09-20T09:00:43.673228Z"}}